sat.trackr.live / text

‹ back to catalog

STARLINK-5512

NORAD 57256 · 2023-094AQ

PAYLOAD ACTIVE UNKNOWN

§ Identity

Operator
Country
US
Launch date
2023-07-07
Launch site
AFWTR
Launch vehicle
Mass (kg)
RCS (m²)

Purposes: comms

External: N2YO · Heavens-Above · Gunter

§ Orbital elements

Epoch: 2026-09-20T13:35:39.921792Z

Period
94.27 min
Inclination
43.0034°
Eccentricity
0.0001323
Mean motion
15.27575336 rev/d
Perigee alt
482.2 km
Apogee alt
484.0 km
Semi-major
6,861.2 km
B*
1.0167e-5
RAAN
359.3540°
Arg perigee
272.7923°
Mean anomaly
87.2777°
Rev number
17,704

§ Raw data

STARLINK-55121 57256U 23094AQ  26263.56643428  .00000018  00000+0  10167-4 0  99972 57256  43.0034 359.3540 0001323 272.7923  87.2777 15.27575336177042

JSON: /api/v1/satellites/57256 · /tle

For live sub-satellite position, see the globe view (requires WebGL).

§ Visibility from observer

Set your observer location to see the next 7 days of passes ≥ 10°. The values pass through the URL so the page stays shareable.

No JS? Fill the form by hand. The geolocation button needs JavaScript.